FGSLFGBT

Guest
Details From FGSL - MALABO
To FGBT - BATA
Flight Number -
Tags generated
Created
Modified
Stats Distance 137 nm / 253 km
Max Altitude 9,000 ft / 2,743 m
Waypoints 4
Social Downloads 0
Likes 0
Share VATSIM

Download

Looking for another format? Having issues loading an existing format? Contact us
Advertisement - Login to hide

Notes

Basic altitude profile: - Ascent Rate: 2500ft/min - Ascent Speed: 250kts - Cruise Altitude: 35000ft - Cruise Speed: 420kts - Descent Rate: 1500ft/min - Descent Speed: 250kts Options: - Use NATs: yes - Use PACOTS: yes - Use low airways: yes - Use high airways: no

Route

FGSL MOPOT G857G BT FGBT

ID Type Via Altitude Latitude Longitude Leg Dist Tot Dist Heading (true) Name
O FGSL APT - 0 ft / 0 m 3.75527˚ 8.70872˚ - 0 nm - MALABO
MOPOT FIX - 9,000 ft / 2,743 m 2.60417˚ 9.78250˚ 94 nm 94 nm 137° / 137° -
BT NDB G857G (AWY-LO) 7,500 ft / 2,286 m 1.90572˚ 9.80206˚ 41 nm 136 nm 178° / 178° BATA NDB
O FGBT APT - 0 ft / 0 m 1.90547˚ 9.80568˚ 0 nm 136 nm 94° / 94° BATA

Altitude Profile

Advertisement - Login to hide

FGSL

Details ICAO FGSL (SSG)
Name MALABO
Region Equatorial Guinea
Timezone Africa/Malabo (UTC+1.0)
Stats Elevation 76 ft / 23 m (AMSL)
Location 3.755267° 8.708717°
Runways 1
Magnetic Variation 1.365° W

METAR

FGSL 272000Z 23010KT 9999 TS FEW012 FEW020CB 26/23 Q1013 NOSIG

Decode

TAF

TAF FGSL 271700Z 2718/2824 24008KT 9999 SCT010 TEMPO 2718/2722 TS BKN010 FEW020CB BECMG 2722/2724 4000 TSRA BKN008 FEW016CB TEMPO 2806/2812 TS SCT012 FEW020CB PROB30 TEMPO 2812/2817 4000 TSRA SCT008 FEW016CB TEMPO 2818/2824 4000 TSRA SCT008 FEW020CB

Decode

Departure Runways

ID Width Length Bearing (true) Bearing (mag) Surface Threshold Offset Overrun Length
05 151 ft / 46 m 9,642 ft / 2,939 m 41.72° 43.08° Concrete 0 ft / 0 m 0 ft / 0 m
23 151 ft / 46 m 9,642 ft / 2,939 m 221.72° 223.08° Concrete 0 ft / 0 m 161 ft / 49 m

FGBT

Details ICAO FGBT (BSG)
Name BATA
Region Equatorial Guinea
Timezone Africa/Malabo (UTC+1.0)
Stats Elevation 13 ft / 4 m (AMSL)
Location 1.905468° 9.805680°
Runways 1
Magnetic Variation 1.446° W

METAR

FGBT 272000Z 25006KT 9999 SCT010 BKN100 29/25 Q1012

Decode

TAF

TAF TAF FGBT 271700Z 2718/2818 16006KT 9999 SCT010 PROB30 TEMPO 2720/2723 TS BKN010 FEW020CB TEMPO 2806/2814 4000 TSRA BKN008 FEW018CB TEMPO 2814/2818 BKN010 FEW020CB

Decode

Destination Runways

ID Width Length Bearing (true) Bearing (mag) Surface Threshold Offset Overrun Length
04 148 ft / 45 m 6,577 ft / 2,005 m 40.97° 42.42° Asphalt 0 ft / 0 m 0 ft / 0 m
22 148 ft / 45 m 6,577 ft / 2,005 m 220.97° 222.42° Asphalt 0 ft / 0 m 0 ft / 0 m

Popular Alternatives